Regional Weather Roundup
Issued by NWS

Home | Current Version | Previous Version | Graphics & Text | Print | Product List | Glossary Off
Versions: 1 2 3 4 5 6 7 8 9 10 11 12 13 14 15 16 17 18 19 20 21 22 23 24 25 26 27 28 29 30 31 32 33 34 35 36 37 38 39 40 41 42 43 44 45 46 47 48 49 50

000
ASUS43 KTOP 062108
RWRKS

WEATHER ROUNDUP FOR KANSAS
NATIONAL WEATHER SERVICE GOODLAND KS
400 PM CDT MON JUL 06 2015

NOTE:  "FAIR" INDICATES FEW OR NO CLOUDS BELOW 12,000 FEET WITH NO
SIGNIFICANT WEATHER AND/OR OBSTRUCTIONS TO VISIBILITY.

KSZ001>006-013>018-027>032-041>047-062200-
NORTHWEST KANSAS

CITY           SKY/WX    TMP DP  RH WIND       PRES   REMARKS
GOODLAND       CLOUDY    71  58  63 N16       30.15F HAZE
HAYS           CLOUDY    73  61  64 N22G32    29.99S
HILL CITY      CLOUDY    75  62  64 N25G31    30.05S HAZE
RUSSELL        CLOUDY    72  67  84 N24G31    29.95R
$$

KSZ061>065-074>080-084>089-062200-
SOUTHWEST KANSAS

CITY           SKY/WX    TMP DP  RH WIND       PRES   REMARKS
DODGE CITY     CLOUDY    74  65  73 N25G32    29.99R
ELKHART          N/A     74  59  59 N16         N/A
GARDEN CITY    CLOUDY    71  64  78 N23       30.05R
GREAT BEND     CLOUDY    79  70  73 N21G29    29.93S
LIBERAL        CLOUDY    81  63  54 N26G32    30.04R
PRATT          PTSUNNY   88  68  51 N23       29.89S
$$

KSZ066>073-081>083-090>101-062200-
SOUTHEAST KANSAS

CITY           SKY/WX    TMP DP  RH WIND       PRES   REMARKS
CHANUTE        MOSUNNY   90  74  59 S23G30    29.83F HX  99
COFFEYVILLE    MOSUNNY   90  74  59 S16G28    29.84F HX  99
HUTCHINSON     CLOUDY    77  72  84 N15G24    29.86R
MEDICINE LODGE   N/A     96  69  41 S20G25    29.79F HX 102
NEWTON         CLOUDY    73  68  83 NW20G32   29.91R THUNDER
PARSONS        SUNNY     90  76  63 S14G25    29.85F HX 101
WICHITA INTL   CLOUDY    90  73  57 S22G29    29.77F HX  98
WICHITA JABRA  TSTM      82  74  76 W12G25    29.80R
WICHITA MCCONL MOSUNNY   90  70  51 S21G29    29.79F HX  95
WINFIELD       PTSUNNY   92  71  50 S20G33    29.82F HX  98
$$

KSZ007>012-019>026-033>040-048>060-102>105-062200-
NORTHEAST KANSAS

CITY           SKY/WX    TMP DP  RH WIND       PRES   REMARKS
CONCORDIA      CLOUDY    71  69  93 N15       29.92S FOG
EMPORIA        PTSUNNY   87  72  60 S17       29.83R
LAWRENCE       PTSUNNY   87  74  64 S12       29.77F HX  95
MANHATTAN      LGT RAIN  74  72  93 N5        29.86F
MARYSVILLE     LGT RAIN  72  72 100 N14G21    29.88S
OLATHE IND     MOSUNNY   87  74  64 S16       29.83F HX  95
OLATHE EXE     PTSUNNY   85  75  72 S20G25    29.81F
SALINA         CLOUDY    76  73  91 N12       29.89R
TOPEKA BILLARD PTSUNNY   88  74  63 S12       29.80R THUNDER HX  96
TOPEKA FORBES  MOSUNNY   88  73  61 S13       29.81R HX  95
$$



USA.gov is the U.S. government's official web portal to all federal, state and local government web resources and services.